Content
SEND FEEDBACK

Daily
Averages
Monthly
Summary
United States of America

OROVILLE, CALIFORNIA


Home > North America > United States > California
Elevation: 199 feet     Latitude: 39 30N     Longitude: 121 37W

WEATHER
 
SELECT A DAY
Number of Records: 152,281;   Date Range: 6/17/98 - 7/23/14
 
SHARE

PRINT THIS DATA

[ ← Previous Day ]
WEATHER ALMANAC - MARCH 29, 2013
[ Next Day → ]
[ °C ]   °F
Weather ElementAverageHighLow
Temperature61.5 °F77 °F (4:53 pm)45 °F (4:53 am)
Dewpoint46.6 °F51.1 °F (9:53 am)43 °F (6:53 am)
Humidity63.6 %97 % (2:53 am)31 % (4:53 pm)
Barometer30.08 in30.13 in (8:53 am)30.03 in (5:53 pm)
Wind Speed3.7 mph8.1 mph (10:53 pm)
Weather ElementAverage
Visibility10 mi
Wind DirectionSSE (161.7 °)

Weather ElementTotal
Precipitation---
Heating Degree Days4 (Base 65)
Growing Degree Days11 (Base 50)
Averaged from 23 records on March 29, 2013
WEATHER CONDITIONS BREAKOUT
WIND DIRECTION BREAKOUT
WEATHER BY HOUR - MARCH 29, 2013
[ °C ]   °F
Local TimeTemperatureDewpointHumidityBarometerVisibilityWind DirectionWind SpeedGust SpeedPrecipitationEventsConditions
1:53 AM48.0 °F46.0 °F93 %30.12 in10.0 miNW (320°)3.5 mphClear
2:53 AM48.9 °F48.0 °F97 %30.12 in10.0 miNNW (330°)3.5 mphClear
3:53 AM46.9 °F45.0 °F93 %30.11 in10.0 miWNW (290°)3.5 mphClear
4:53 AM45.0 °F44.1 °F97 %30.11 in10.0 miWNW (300°)4.6 mphClear
5:53 AM45.0 °F44.1 °F97 %30.12 in10.0 miWNW (290°)4.6 mphClear
6:53 AM45.0 °F43.0 °F93 %30.12 in10.0 miWNW (290°)4.6 mphClear
7:53 AM46.9 °F45.0 °F93 %30.12 in10.0 miWNW (290°)4.6 mphClear
8:53 AM51.1 °F48.0 °F89 %30.13 in10.0 miWNW (290°)4.6 mphClear
9:53 AM60.1 °F51.1 °F72 %30.13 in10.0 miVariable3.5 mphClear
10:53 AM64.0 °F50.0 °F60 %30.12 in10.0 miWest (270°)4.6 mphClear
11:53 AM68.0 °F50.0 °F52 %30.12 in10.0 miWest (260°)4.6 mphClear
12:53 PM71.1 °F50.0 °F47 %30.11 in10.0 miWNW (290°)5.8 mphClear
1:53 PM73.0 °F48.9 °F42 %30.09 in10.0 miVariable4.6 mphClear
2:53 PM75.0 °F44.1 °F33 %30.06 in10.0 miCalmClear
3:53 PM75.9 °F45.0 °F33 %30.05 in10.0 miWSW (250°)4.6 mphClear
4:53 PM77.0 °F44.1 °F31 %30.04 in10.0 miCalmClear
5:53 PM77.0 °F44.1 °F31 %30.03 in10.0 miCalmClear
6:53 PM75.9 °F44.1 °F32 %30.03 in10.0 miCalmClear
7:53 PM71.1 °F46.9 °F42 %30.03 in10.0 miCalmClear
8:53 PM64.0 °F48.0 °F56 %30.04 in10.0 miENE (60°)3.5 mphClear
9:53 PM60.1 °F48.0 °F64 %30.05 in10.0 miNE (40°)4.6 mphClear
10:53 PM63.0 °F46.9 °F56 %30.05 in10.0 miENE (70°)8.1 mphClear
11:53 PM62.1 °F48.0 °F60 %30.05 in10.0 miEast (80°)6.9 mphClear
Hourly data recorded from KOVE, located miles away from Oroville, California







STORIES FROM OUR PARTNERS